Regional Weather Roundup
Issued by NWS

Home | Current Version | Previous Version | Graphics & Text | Print | Product List | Glossary Off
Versions: 1 2 3 4 5 6 7 8 9 10 11 12 13 14 15 16 17 18 19 20 21 22 23 24 25 26 27 28 29 30 31 32 33 34 35 36 37 38 39 40 41 42 43 44 45 46 47 48 49 50

000
ASUS43 KMPX 290001
RWRMN
WEATHER ROUNDUP FOR MINNESOTA
NATIONAL WEATHER SERVICE TWIN CITIES/CHANHASSEN MN
700 PM CDT THU APR 28 2016


NOTE: "FAIR" INDICATES FEW OR NO CLOUDS BELOW 12,000 FEET WITH NO
SIGNIFICANT WEATHER AND/OR OBSTRUCTIONS TO VISIBILITY. N/A MEANS
CURRENT SKY AND/OR WEATHER CONDITIONS ARE NOT AVAILABLE.

MNZ060>063-068>070-290100-
   Twin Cities Metro

CITY           SKY/WX    TMP DP  RH WIND       PRES   REMARKS
TWIN CITIES    LGT RAIN  40  36  86 N5        30.08R
6HR MIN TEMP:  40; 6HR MAX TEMP:  42; 6HR PCP:  0.24;

ST PAUL        LGT RAIN  42  37  82 NE6       30.08S
CRYSTAL        LGT RAIN  42  38  85 CALM      30.07R FOG
BLAINE         LGT RAIN  43  43 100 CALM      30.07S
EDEN PRAIRIE   LGT RAIN  40  35  83 NE8       30.06R
6HR MIN TEMP:  40; 6HR MAX TEMP:  44; 6HR PCP:  0.09;

SOUTH ST PAUL  LGT RAIN  41  39  94 CALM      30.07S
LAKE ELMO      RAIN      41  39  93 NE5       30.08R
$$
MNZ001>005-007-008-013>017-022>024-027-028-290100-
   Northwest Minnesota

CITY           SKY/WX    TMP DP  RH WIND       PRES   REMARKS
BEMIDJI        CLOUDY    54  27  35 N7        30.09S
HALLOCK        SUNNY     57  19  23 SE9       30.13S
ROSEAU         SUNNY     54  28  37 E15       30.15S
WARROAD        MOSUNNY   48  27  43 NE6       30.16S
THIEF RVR FALL MOSUNNY   55  25  30 NE12      30.13S
CROOKSTON      MOSUNNY   55  25  30 NE14G21   30.12R
FOSSTON        MOSUNNY   54  27  35 NE9       30.10S
DETROIT LAKES  CLOUDY    54  23  30 E10       30.08R
MOORHEAD       CLOUDY    57  23  26 E5        30.08R
PARK RAPIDS    CLOUDY    54  23  30 NE7       30.06S
MAHNOMEN       FAIR      55  27  34 NE16      30.07R
$$
MNZ006-009>011-018-025>026-290100-
   North Central Minnesota

CITY           SKY/WX    TMP DP  RH WIND       PRES   REMARKS
BAUDETTE       SUNNY     52  23  32 N12       30.12S
FLAG ISLAND    MOSUNNY   52  23  32 N14       30.15S
INTL FALLS     SUNNY     53  26  35 NE10      30.12R
6HR MIN TEMP:  49; 6HR MAX TEMP:  55;

WASKISH        SUNNY     54  28  37 E6        30.11F
BIG FORK       MOSUNNY   54  25  32 NE7       30.10S
LONGVILLE      PTSUNNY   55  25  30 E3        30.06S
GRAND RAPIDS   PTSUNNY   55  25  30 NE6       30.08S
CRANE LAKE     SUNNY     54  27  35 SE3       30.12S
ORR            SUNNY     54  21  28 CALM      30.08S
COOK           SUNNY     52  27  37 N5        30.10S
WALKER         CLOUDY    53  27  37 E3        30.07S
$$
MNZ012-019>021-037-290100-
   Northeast Minnesota

CITY           SKY/WX    TMP DP  RH WIND       PRES   REMARKS
DULUTH         PTSUNNY   39  24  55 E13       30.11R
6HR MIN TEMP:  39; 6HR MAX TEMP:  49;

ELY            PTSUNNY   52  25  35 N3        30.10R
HIBBING        CLOUDY    52  26  36 NE12      30.07R
EVELETH        CLOUDY    52  27  37 NE9       30.09R
DULUTH HARBOR  CLOUDY    37  34  87 NE18      30.13S
TWO HARBORS    CLOUDY    45  30  57 E8        30.11S
SILVER BAY     SUNNY     43  27  52 NE9       30.12R
GRAND MARAIS     N/A     39  31  72 NE9       30.14S
G MARAIS ARPRT SUNNY     43  23  45 NE8       30.11S
$$
MNZ029>031-032-039>041-046>048-054>057-064-290100-
   West Central Minnesota

CITY           SKY/WX    TMP DP  RH WIND       PRES   REMARKS
FERGUS FALLS   CLOUDY    50  32  50 SW8       30.05S
WHEATON        CLOUDY    46  39  76 S3        30.11S
MORRIS         CLOUDY    45  39  81 E8        30.07S
ALEXANDRIA     CLOUDY    45  36  70 S7        30.08R
ELBOW LAKE     CLOUDY    46  38  73 W8        30.08R
WADENA         CLOUDY    54  27  35 CALM      30.05R
GLENWOOD       CLOUDY    43  37  81 SE9       30.09R
APPLETON       CLOUDY    43  39  87 CALM      30.08S
BENSON         CLOUDY    45  37  76 SE5       30.08S
ORTONVILLE     CLOUDY    43  37  81 E5        30.09R
MADISON        CLOUDY    43  39  87 NE7       30.09R
WILLMAR        CLOUDY    45  37  76 NE12      30.09R
$$
MNZ033>034-036-042>043-049>051-058-059-290100-
   Central Minnesota

CITY           SKY/WX    TMP DP  RH WIND       PRES   REMARKS
ST CLOUD       LGT RAIN  42  38  85 CALM      30.08R FOG
6HR MIN TEMP:  41; 6HR MAX TEMP:  45; 6HR PCP:  0.12;

SAUK CENTRE    CLOUDY    42  38  84 SE8       30.09R
PAYNESVILLE    LGT RAIN  40  39  96 E8        30.09S
AITKIN         CLOUDY    52  16  24 E7        30.07R
PINE RIVER     CLOUDY    55  30  38 E10       30.09R
BRAINERD       CLOUDY    51  20  29 E7        30.07R
STAPLES        MOSUNNY   50  34  53 S8        30.06R
LONG PRAIRIE   CLOUDY    43  36  75 SE9       30.08R
LITTLE FALLS   CLOUDY    45  36  70 CALM      30.08R
LITCHFIELD     LGT RAIN  39  39 100 NE9       30.09R
BUFFALO        LGT RAIN  39  36  89 CALM      30.09S
MAPLE LAKE     LGT RAIN  41  39  93 N3        30.09R
HUTCHINSON     CLOUDY    41  37  87 NE12      30.09R
$$
MNZ037-044-045-052-053-290100-
   East Central Minnesota

CITY           SKY/WX    TMP DP  RH WIND       PRES   REMARKS
PRINCETON      LGT RAIN  45  39  81 CALM      30.09R
MORA           CLOUDY    45  28  53 NE5       30.09R
CAMBRIDGE      RAIN      45  37  76 NW3       30.06S
RUSH CITY      CLOUDY    47  32  56 N8        30.07R
MOOSE LAKE     CLOUDY    43  21  42 NE7       30.08S
HINCKLEY       CLOUDY    45  28  53 NE9       30.08S
CLOQUET        MOSUNNY   43  21  42 E14G20    30.10S
MCGREGOR       CLOUDY    48  23  37 E12       30.09S
$$
MNZ071>073-080-081-089-090-097-098-290100-
   Southwest Minnesota

CITY           SKY/WX    TMP DP  RH WIND       PRES   REMARKS
MONTEVIDEO     CLOUDY    43  39  87 SE10      30.09R
GRANITE FALLS  CLOUDY    44  38  81 E8G16     30.09R
CANBY          LGT RAIN  40  39  95 N5        30.09R
MARSHALL       CLOUDY    38  37  97 N9        30.07R
REDWOOD FALLS  CLOUDY    42  36  79 E9G18     30.06R
OLIVIA         CLOUDY    41  36  81 E12       30.06S
PIPESTONE      CLOUDY    37  36  93 NE6       30.05R
WINDOM         CLOUDY    39  37  93 NE7       30.04R
WORTHINGTON    CLOUDY    39  36  89 N8        30.04R
JACKSON        CLOUDY    41  36  81 N8        30.03R
TRACY          CLOUDY    40  38  92 NE6       30.06R
SLAYTON        CLOUDY    38  37  99 N6        30.05R
$$
MNZ065>067-074>077-082>085-091>093-290100-
   South Central Minnesota

CITY           SKY/WX    TMP DP  RH WIND       PRES   REMARKS
MANKATO        CLOUDY    39  36  87 NE8       30.05R
NEW ULM        CLOUDY    39  37  93 E8        30.06R
ST JAMES       CLOUDY    36  34  93 NE6       30.06R
FAIRMONT       CLOUDY    41  30  65 NE10      30.02S
GLENCOE        CLOUDY    41  38  89 NE6       30.07R
FARIBAULT      CLOUDY    39  36  87 NE10      30.04S
OWATONNA       DRIZZLE   39  37  93 NE7       30.03S
WASECA         RAIN      39  36  87 E9        30.05R
ALBERT LEA     CLOUDY    39  39 100 NE8       30.01R
$$
MNZ078>079-086>088-094>096-290100-
   Southeast Minnesota

CITY           SKY/WX    TMP DP  RH WIND       PRES   REMARKS
ROCHESTER      CLOUDY    40  39  97 NE7       30.02R
6HR MIN TEMP:  39; 6HR MAX TEMP:  41; 6HR PCP:  0.08;

RED WING       LGT RAIN  41  37  87 E5        30.05R
STANTON        LGT RAIN  41  37  87 NE8       30.04S
DODGE CENTER   CLOUDY    39  37  93 E9        30.02S
WINONA         CLOUDY    41  39  93 E7        30.04R FOG
AUSTIN         CLOUDY    39  36  87 NE7       30.01R
PRESTON        CLOUDY    39  36  87 NE3       30.01S
$$
ABBREVIATIONS USED IN REMARKS
   TC - TEMPERATURES IN CELSIUS
  WCI - WIND CHILL INDEX
   HX - HEAT INDEX
  VSB - VISIBILITY
$$




USA.gov is the U.S. government's official web portal to all federal, state and local government web resources and services.